Tracking 28790 objects as of 19-Apr-2024
HD Live streaming from Space Station
objects crossing your sky now

USA 25

Track USA 25 now!
10-day predictions
USA 25 is classified as:


NORAD ID: 18025
Int'l Code: 1987-043H
Perigee: 362.5 km
Apogee: 1,685.3 km
Inclination: 63.3 °
Period: 105.5 minutes
Semi major axis: 7394 km
RCS: Unknown
Launch date: May 15, 1987
Source: United States (US)
Launch site: AIR FORCE WESTERN TEST RANGE (AFWTR)
Your satellite tracking list
Your tracking list is empty




NASA's NSSDC Master Catalog

Two Line Element Set (TLE):
1 18025U 87043H   24110.12626664  .00026879  00000-0  14927-2 0  9996
2 18025  63.2933  20.2428 0894389  87.5856 282.7151 13.65230994243010
Source of the keplerian elements: McCants